GW0492 Weather Reports


time (UTC)temp
C
wind
direction
speed
KPH
gust
KPH
rain 1hr
cm
rain 24hr
cm
rain mn
cm
humidity
%
barometer
mb
20260506002015 24 68 4.8 14.5 0.00 0.05 0.05 41 994.4
20260506001035 25 68 3.2 12.9 0.00 0.05 0.05 41 994.2
20260506000017 25 90 6.4 16.1 0.00 0.05 0.05 40 994.2
20260505235017 25 90 6.4 14.5 0.00 0.05 0.05 39 994.2
20260505234017 25 90 6.4 17.7 0.00 0.05 0.05 39 994.0
20260505233017 25 90 3.2 12.9 0.00 0.05 0.05 39 994.0
20260505232017 25 90 6.4 24.1 0.00 0.05 0.05 38 993.9
20260505231017 26 113 8.0 17.7 0.00 0.05 0.05 37 993.8
20260505230017 26 90 8.0 27.4 0.00 0.05 0.05 37 993.8
20260505225017 26 113 4.8 16.1 0.00 0.05 0.05 37 993.7
20260505224017 27 113 6.4 27.4 0.00 0.05 0.05 36 993.8
20260505223017 27 113 6.4 29.0 0.00 0.05 0.05 35 993.7
20260505222017 27 68 8.0 22.5 0.00 0.05 0.05 34 993.6
20260505221017 27 90 3.2 16.1 0.00 0.05 0.05 35 993.5
20260505220017 27 90 9.7 20.9 0.00 0.05 0.05 33 993.4
20260505215017 27 90 6.4 20.9 0.00 0.05 0.05 34 993.6
20260505214017 27 113 9.7 29.0 0.00 0.05 0.05 34 993.6
20260505213017 27 90 9.7 22.5 0.00 0.05 0.05 36 993.6
20260505212037 27 90 4.8 12.9 0.00 0.05 0.05 36 993.5
20260505211017 28 68 3.2 22.5 0.00 0.05 0.05 34 993.6
20260505210037 28 90 4.8 17.7 0.00 0.05 0.05 34 993.5
20260505205017 28 113 11.3 38.6 0.00 0.05 0.05 32 993.6
20260505204037 28 113 6.4 19.3 0.00 0.05 0.05 35 993.6
20260505203017 27 90 12.9 32.2 0.00 0.05 0.05 34 993.4
20260505202017 28 68 11.3 30.6 0.00 0.05 0.05 34 993.5
20260505201057 28 90 9.7 30.6 0.00 0.05 0.05 33 993.4
20260505200017 27 90 9.7 24.1 0.00 0.05 0.05 35 993.6
20260505195017 28 68 8.0 25.7 0.00 0.05 0.05 35 993.7
20260505194017 28 113 4.8 22.5 0.00 0.05 0.05 36 993.8
20260505193017 28 113 4.8 22.5 0.00 0.05 0.05 34 993.8
20260505192017 28 90 4.8 17.7 0.00 0.05 0.05 36 993.9
20260505191016 28 45 4.8 24.1 0.00 0.05 0.05 36 993.8
20260505190037 28 113 8.0 24.1 0.00 0.05 0.05 36 994.1
20260505185017 28 113 4.8 22.5 0.00 0.05 0.05 33 994.2
20260505184017 28 158 3.2 14.5 0.00 0.05 0.05 36 994.2
20260505183016 28 158 4.8 19.3 0.00 0.05 0.05 33 994.4
20260505182017 28 135 4.8 19.3 0.00 0.05 0.05 33 994.5
20260505181017 28 248 4.8 16.1 0.00 0.05 0.05 35 994.6
20260505180017 28 158 6.4 24.1 0.00 0.05 0.05 33 994.7
20260505175017 28 90 8.0 22.5 0.00 0.05 0.05 36 995.0
20260505174017 28 113 4.8 16.1 0.00 0.05 0.05 35 995.0
20260505173017 28 113 4.8 12.9 0.00 0.05 0.05 36 995.0
20260505172016 28 113 4.8 16.1 0.00 0.05 0.05 37 995.3
20260505171016 27 90 6.4 27.4 0.00 0.05 0.05 38 995.3
20260505170017 27 90 6.4 16.1 0.00 0.05 0.05 42 995.4
20260505165016 27 0.0 1.6 0.00 0.05 0.05 41 995.5
20260505164036 27 135 4.8 17.7 0.00 0.05 0.05 41 995.8
20260505163016 26 180 4.8 11.3 0.00 0.05 0.05 42 996.0
20260505162016 26 113 4.8 17.7 0.00 0.05 0.05 42 996.0
20260505161017 26 113 4.8 19.3 0.00 0.05 0.05 44 996.1
20260505153016 25 90 4.8 19.3 0.03 0.05 0.05 45 996.4
20260505152036 25 203 3.2 12.9 0.03 0.05 0.05 47 996.5
20260505151036 24 90 4.8 11.3 0.03 0.05 0.05 49 996.6
20260505125036 16 0.0 0.0 0.00 0.03 0.03 81 997.5
20260505124016 15 0.0 0.0 0.00 0.03 0.03 83 997.3
20260505123056 15 0.0 0.0 0.00 0.03 0.03 86 997.3
20260505122016 14 0.0 0.0 0.00 0.03 0.03 88 997.2
20260505121016 13 0.0 1.6 0.00 0.03 0.03 90 997.2
20260505120036 13 0.0 0.0 0.00 0.03 0.03 91 997.3
20260505115036 12 0.0 3.2 0.00 0.03 0.03 94 997.3
20260505114016 12 0.0 0.0 0.00 0.03 0.03 94 996.9
20260505113016 11 0.0 0.0 0.00 0.03 0.03 93 997.0
20260505112016 11 0.0 0.0 0.00 0.03 0.03 93 996.9
20260505111056 11 0.0 0.0 0.00 0.03 0.03 92 996.8
20260505102035 11 0.0 0.0 0.00 0.03 0.03 90 996.7
20260505101015 11 0.0 0.0 0.00 0.03 0.03 90 996.5
20260505100016 11 0.0 0.0 0.00 0.03 0.03 89 996.6
20260505095016 11 0.0 0.0 0.00 0.03 0.03 89 996.6
20260505094016 12 0.0 0.0 0.00 0.03 0.03 89 996.6
20260505093016 12 0.0 0.0 0.00 0.03 0.03 89 996.5
20260505092016 12 0.0 0.0 0.03 0.03 0.03 88 996.7
20260505091016 12 0.0 0.0 0.03 0.03 0.03 88 996.6
20260505090036 12 0.0 0.0 0.03 0.03 0.03 86 996.7
20260505085056 12 0.0 0.0 0.03 0.03 0.03 84 996.6
20260505084015 12 0.0 0.0 0.03 0.03 0.03 82 996.8
20260505083016 13 0.0 0.0 0.03 0.03 0.03 78 996.6
20260505082015 13 0.0 0.0 0.00 0.00 0.00 74 996.9
20260505081015 13 0.0 0.0 0.00 0.00 0.00 72 996.6
20260505080015 12 0.0 0.0 0.00 0.00 0.00 72 996.2
20260505075016 12 0.0 0.0 0.00 0.00 0.00 74 996.0
20260505074015 13 0.0 0.0 0.00 0.00 0.00 73 996.0
20260505073015 13 0.0 0.0 0.00 0.00 0.00 71 996.2
20260505072015 13 0.0 0.0 0.00 0.00 0.00 70 996.2
20260505071016 13 0.0 0.0 0.00 0.00 0.00 68 996.2
20260505070015 13 0.0 0.0 0.00 0.00 0.00 67 996.3
20260505065015 13 0.0 0.0 0.00 0.00 0.00 66 996.2
20260505064015 14 0.0 0.0 0.00 0.00 0.00 64 996.3
20260505063015 14 0.0 0.0 0.00 0.00 0.00 62 996.3
20260505062015 15 0.0 0.0 0.00 0.00 0.00 61 996.4
20260505061015 15 0.0 0.0 0.00 0.00 0.00 60 996.4
20260505060015 15 0.0 0.0 0.00 0.00 0.00 58 996.4
20260505055015 16 0.0 0.0 0.00 0.00 0.00 57 996.3
20260505054017 16 0.0 0.0 0.00 0.00 0.00 56 996.3
20260505053017 16 0.0 0.0 0.00 0.00 0.00 55 996.2
20260505052017 16 0.0 4.8 0.00 0.00 0.00 55 996.2
20260505051037 16 113 4.8 9.7 0.00 0.00 0.00 55 996.2
20260505041017 16 0.0 3.2 0.00 0.00 0.00 54 996.2
20260505040017 17 0.0 3.2 0.00 0.00 0.00 53 996.1
20260505035016 17 113 1.6 8.0 0.00 0.00 0.00 51 995.9
20260505034017 17 90 3.2 11.3 0.00 0.00 0.00 51 995.9
20260505033016 17 0.0 4.8 0.00 0.00 0.00 51 996.0
20260505032016 17 113 1.6 9.7 0.00 0.00 0.00 50 996.1
20260505031036 17 68 1.6 9.7 0.00 0.00 0.00 49 996.1
20260505030016 17 0.0 6.4 0.00 0.00 0.00 48 996.2
20260505025016 18 68 1.6 9.7 0.00 0.00 0.00 47 996.2
20260505024016 18 0.0 6.4 0.00 0.00 0.00 47 996.2
20260505023016 18 68 3.2 12.9 0.00 0.00 0.00 46 996.2
20260505022016 18 90 3.2 9.7 0.00 0.00 0.00 46 996.3
20260505021036 18 113 1.6 4.8 0.00 0.00 0.00 47 996.4
20260505020016 18 0.0 0.0 0.00 0.00 0.00 46 996.4
20260505015016 18 0.0 0.0 0.00 0.00 0.00 45 996.3
20260505014016 18 0.0 3.2 0.00 0.00 0.00 45 996.3
20260505013016 18 0.0 0.0 0.00 0.00 0.00 45 996.3
20260505012016 18 90 3.2 11.3 0.00 0.00 0.00 45 996.1
20260505011016 18 113 3.2 11.3 0.00 0.00 0.00 45 996.0
20260505010016 18 45 1.6 11.3 0.00 0.00 0.00 44 995.8
20260505005016 19 90 3.2 9.7 0.00 0.00 0.00 44 995.8
20260505004016 19 113 3.2 9.7 0.00 0.00 0.00 43 995.8
20260505003016 19 90 3.2 12.9 0.00 0.00 0.00 43 995.6